Location: Unspecified
(0.0000°N, 0.0000°E)
Time: 00:54:31
(UTC+00:00)

deb Kosmos-1275 - Pass Details

Date: 11 March 2026
Orbit: 924 x 993 km, 82.9° (Epoch: 14 April)

Event Time Altitude Azimuth Distance (km) Brightness Sun altitude
Rises 05:18:12 0° 151° (SSE) 3,640 ? -12.9°
Reaches altitude 10° 05:21:47 10° 130° (SE) 2,677 ? -12.1°
Maximum altitude 05:25:21 16° 94° (E) 2,247 ? -11.2°
Drops below altitude 10° 05:28:53 10° 57° (ENE) 2,644 ? -10.3°
Sets 05:32:22 0° 37° (NE) 3,574 ? -9.4°
